Time,TemperatureF,DewpointF,PressureIn,WindDirection,WindDirectionDegrees,WindSpeedMPH,WindSpeedGustMPH,Humidity,HourlyPrecipIn,Conditions,Clouds,dailyrainin,SoftwareType,DateUTC
2013-11-28 00:05:00,27.9,22.0,30.42,ENE,62,0.0,2.0,77,0.00,,,0.00,weatherlink.com 1.10,2013-11-28 05:05:00,
2013-11-28 00:20:00,27.4,21.0,30.43,North,359,0.0,4.0,76,0.00,,,0.00,weatherlink.com 1.10,2013-11-28 05:20:00,
2013-11-28 00:35:00,27.7,22.0,30.43,NNE,19,0.0,4.0,78,0.00,,,0.00,weatherlink.com 1.10,2013-11-28 05:35:00,
2013-11-28 00:50:00,28.0,22.0,30.43,ENE,73,1.0,3.0,79,0.00,,,0.00,weatherlink.com 1.10,2013-11-28 05:50:00,
2013-11-28 01:05:00,27.7,22.0,30.43,ENE,74,0.0,5.0,79,0.00,,,0.00,weatherlink.com 1.10,2013-11-28 06:05:00,
2013-11-28 01:20:00,27.6,21.0,30.43,NE,48,0.0,5.0,77,0.00,,,0.00,weatherlink.com 1.10,2013-11-28 06:20:00,
2013-11-28 01:35:00,28.0,22.0,30.44,ENE,70,0.0,5.0,78,0.00,,,0.00,weatherlink.com 1.10,2013-11-28 06:35:00,
2013-11-28 01:50:00,27.7,21.0,30.44,NE,50,1.0,2.0,76,0.00,,,0.00,weatherlink.com 1.10,2013-11-28 06:50:00,
2013-11-28 02:05:00,27.2,20.0,30.44,NE,47,5.0,8.0,73,0.00,,,0.00,weatherlink.com 1.10,2013-11-28 07:05:00,
2013-11-28 02:20:00,26.7,19.0,30.45,NE,55,2.0,7.0,73,0.00,,,0.00,weatherlink.com 1.10,2013-11-28 07:20:00,
2013-11-28 02:35:00,26.4,19.0,30.46,East,94,3.0,6.0,73,0.00,,,0.00,weatherlink.com 1.10,2013-11-28 07:35:00,
2013-11-28 02:51:00,25.6,19.0,30.46,ESE,102,2.0,6.0,75,0.00,,,0.00,weatherlink.com 1.10,2013-11-28 07:51:00,
2013-11-28 03:06:00,25.1,18.0,30.46,East,82,2.0,6.0,75,0.00,,,0.00,weatherlink.com 1.10,2013-11-28 08:06:00,
2013-11-28 03:21:00,26.0,19.0,30.46,ENE,57,2.0,3.0,76,0.00,,,0.00,weatherlink.com 1.10,2013-11-28 08:21:00,
2013-11-28 03:36:00,25.7,18.0,30.46,ENE,69,3.0,4.0,74,0.00,,,0.00,weatherlink.com 1.10,2013-11-28 08:36:00,
2013-11-28 03:51:00,24.5,18.0,30.47,NE,56,2.0,3.0,76,0.00,,,0.00,weatherlink.com 1.10,2013-11-28 08:51:00,
2013-11-28 04:06:00,25.3,18.0,30.47,ENE,70,1.0,4.0,74,0.00,,,0.00,weatherlink.com 1.10,2013-11-28 09:06:00,
2013-11-28 04:21:00,25.1,18.0,30.48,NE,56,1.0,4.0,74,0.00,,,0.00,weatherlink.com 1.10,2013-11-28 09:21:00,
2013-11-28 04:36:00,23.7,18.0,30.49,NNE,14,2.0,2.0,78,0.00,,,0.00,weatherlink.com 1.10,2013-11-28 09:36:00,
2013-11-28 04:51:00,23.4,18.0,30.49,NNE,27,1.0,2.0,78,0.00,,,0.00,weatherlink.com 1.10,2013-11-28 09:51:00,
2013-11-28 05:06:00,23.6,17.0,30.48,NE,46,1.0,3.0,77,0.00,,,0.00,weatherlink.com 1.10,2013-11-28 10:06:00,
2013-11-28 05:21:00,23.3,17.0,30.49,North,4,2.0,3.0,78,0.00,,,0.00,weatherlink.com 1.10,2013-11-28 10:21:00,
2013-11-28 05:36:00,22.9,18.0,30.49,NE,43,2.0,6.0,80,0.00,,,0.00,weatherlink.com 1.10,2013-11-28 10:36:00,
2013-11-28 05:51:00,22.8,18.0,30.50,NE,34,2.0,5.0,82,0.00,,,0.00,weatherlink.com 1.10,2013-11-28 10:51:00,
2013-11-28 06:06:00,22.6,18.0,30.51,NE,36,1.0,4.0,82,0.00,,,0.00,weatherlink.com 1.10,2013-11-28 11:06:00,
2013-11-28 06:21:00,22.8,18.0,30.51,NE,55,3.0,7.0,82,0.00,,,0.00,weatherlink.com 1.10,2013-11-28 11:21:00,
2013-11-28 06:36:00,22.6,18.0,30.52,NE,51,3.0,5.0,82,0.00,,,0.00,weatherlink.com 1.10,2013-11-28 11:36:00,
2013-11-28 06:51:00,22.5,18.0,30.53,NNE,31,0.0,5.0,83,0.00,,,0.00,weatherlink.com 1.10,2013-11-28 11:51:00,
2013-11-28 07:07:00,22.4,18.0,30.54,ENE,60,1.0,4.0,83,0.00,,,0.00,weatherlink.com 1.10,2013-11-28 12:07:00,
2013-11-28 07:21:00,22.6,18.0,30.54,NNE,30,1.0,6.0,82,0.00,,,0.00,weatherlink.com 1.10,2013-11-28 12:21:00,
2013-11-28 07:36:00,22.6,18.0,30.55,NNE,33,2.0,5.0,82,0.00,,,0.00,weatherlink.com 1.10,2013-11-28 12:36:00,
2013-11-28 07:51:00,22.8,18.0,30.55,North,4,2.0,4.0,82,0.00,,,0.00,weatherlink.com 1.10,2013-11-28 12:51:00,
2013-11-28 08:06:00,23.4,18.0,30.56,NE,55,2.0,4.0,81,0.00,,,0.00,weatherlink.com 1.10,2013-11-28 13:06:00,
2013-11-28 08:21:00,24.3,19.0,30.56,NE,38,2.0,5.0,79,0.00,,,0.00,weatherlink.com 1.10,2013-11-28 13:21:00,
2013-11-28 08:36:00,27.4,21.0,30.57,ENE,58,0.0,3.0,76,0.00,,,0.00,weatherlink.com 1.10,2013-11-28 13:36:00,
2013-11-28 08:51:00,27.5,20.0,30.57,NNE,25,1.0,3.0,74,0.00,,,0.00,weatherlink.com 1.10,2013-11-28 13:51:00,
2013-11-28 09:06:00,29.4,22.0,30.57,East,81,0.0,3.0,75,0.00,,,0.00,weatherlink.com 1.10,2013-11-28 14:06:00,
2013-11-28 09:21:00,28.7,21.0,30.58,NE,42,1.0,3.0,72,0.00,,,0.00,weatherlink.com 1.10,2013-11-28 14:21:00,
2013-11-28 09:36:00,30.3,21.0,30.58,East,98,1.0,6.0,69,0.00,,,0.00,weatherlink.com 1.10,2013-11-28 14:36:00,
2013-11-28 09:51:00,29.8,21.0,30.58,East,80,6.0,6.0,71,0.00,,,0.00,weatherlink.com 1.10,2013-11-28 14:51:00,
2013-11-28 10:06:00,29.8,21.0,30.58,ESE,110,3.0,6.0,71,0.00,,,0.00,weatherlink.com 1.10,2013-11-28 15:06:00,
2013-11-28 10:21:00,31.9,22.0,30.59,SE,130,1.0,5.0,67,0.00,,,0.00,weatherlink.com 1.10,2013-11-28 15:21:00,
2013-11-28 10:36:00,31.8,20.0,30.59,ENE,77,2.0,4.0,63,0.00,,,0.00,weatherlink.com 1.10,2013-11-28 15:36:00,
2013-11-28 10:52:00,32.9,22.0,30.59,SE,145,3.0,6.0,64,0.00,,,0.00,weatherlink.com 1.10,2013-11-28 15:52:00,
2013-11-28 11:07:00,32.8,21.0,30.58,SE,136,6.0,7.0,63,0.00,,,0.00,weatherlink.com 1.10,2013-11-28 16:07:00,
2013-11-28 11:22:00,34.4,22.0,30.57,ENE,77,4.0,7.0,62,0.00,,,0.00,weatherlink.com 1.10,2013-11-28 16:22:00,
2013-11-28 11:37:00,34.8,21.0,30.57,South,170,0.0,6.0,58,0.00,,,0.00,weatherlink.com 1.10,2013-11-28 16:37:00,
2013-11-28 11:52:00,33.8,21.0,30.56,ESE,120,6.0,8.0,61,0.00,,,0.00,weatherlink.com 1.10,2013-11-28 16:52:00,
2013-11-28 12:07:00,33.8,21.0,30.55,East,80,3.0,8.0,59,0.00,,,0.00,weatherlink.com 1.10,2013-11-28 17:07:00,
2013-11-28 12:22:00,35.8,23.0,30.55,NE,52,1.0,6.0,59,0.00,,,0.00,weatherlink.com 1.10,2013-11-28 17:22:00,
2013-11-28 12:37:00,37.7,22.0,30.55,East,93,3.0,4.0,54,0.00,,,0.00,weatherlink.com 1.10,2013-11-28 17:37:00,
2013-11-28 12:52:00,37.3,22.0,30.54,East,84,0.0,5.0,54,0.00,,,0.00,weatherlink.com 1.10,2013-11-28 17:52:00,
2013-11-28 13:07:00,39.1,22.0,30.54,ENE,69,0.0,4.0,50,0.00,,,0.00,weatherlink.com 1.10,2013-11-28 18:07:00,
2013-11-28 13:22:00,38.8,23.0,30.53,ENE,70,0.0,5.0,53,0.00,,,0.00,weatherlink.com 1.10,2013-11-28 18:22:00,
2013-11-28 13:37:00,39.1,22.0,30.53,SW,236,1.0,5.0,51,0.00,,,0.00,weatherlink.com 1.10,2013-11-28 18:37:00,
2013-11-28 13:52:00,40.5,24.0,30.53,NE,51,0.0,2.0,52,0.00,,,0.00,weatherlink.com 1.10,2013-11-28 18:52:00,
2013-11-28 14:07:00,41.4,22.0,30.53,WSW,252,1.0,3.0,46,0.00,,,0.00,weatherlink.com 1.10,2013-11-28 19:07:00,
2013-11-28 14:22:00,40.8,22.0,30.53,NE,39,0.0,3.0,48,0.01,,,0.01,weatherlink.com 1.10,2013-11-28 19:22:00,
2013-11-28 14:37:00,40.5,22.0,30.52,East,89,5.0,6.0,47,0.01,,,0.01,weatherlink.com 1.10,2013-11-28 19:37:00,
2013-11-28 14:52:00,40.8,22.0,30.52,SE,136,3.0,6.0,47,0.01,,,0.01,weatherlink.com 1.10,2013-11-28 19:52:00,
2013-11-28 15:07:00,40.7,20.0,30.51,East,96,1.0,7.0,44,0.01,,,0.01,weatherlink.com 1.10,2013-11-28 20:07:00,
2013-11-28 15:22:00,40.9,21.0,30.51,ENE,72,2.0,6.0,45,0.00,,,0.01,weatherlink.com 1.10,2013-11-28 20:22:00,
2013-11-28 15:37:00,40.9,20.0,30.51,WSW,238,2.0,4.0,43,0.00,,,0.01,weatherlink.com 1.10,2013-11-28 20:37:00,
2013-11-28 15:52:00,41.5,21.0,30.52,SE,129,2.0,5.0,45,0.00,,,0.01,weatherlink.com 1.10,2013-11-28 20:52:00,
2013-11-28 16:07:00,41.6,21.0,30.52,East,87,2.0,6.0,44,0.00,,,0.01,weatherlink.com 1.10,2013-11-28 21:07:00,
2013-11-28 16:22:00,41.3,22.0,30.52,ESE,109,5.0,5.0,46,0.00,,,0.01,weatherlink.com 1.10,2013-11-28 21:22:00,
2013-11-28 16:37:00,41.3,22.0,30.52,ESE,117,5.0,5.0,46,0.00,,,0.01,weatherlink.com 1.10,2013-11-28 21:37:00,
2013-11-28 16:52:00,41.6,21.0,30.52,SSW,212,3.0,4.0,44,0.00,,,0.01,weatherlink.com 1.10,2013-11-28 21:52:00,
2013-11-28 17:07:00,40.3,21.0,30.53,SSW,192,3.0,5.0,47,0.00,,,0.01,weatherlink.com 1.10,2013-11-28 22:07:00,
2013-11-28 17:22:00,39.3,22.0,30.53,SSW,207,4.0,4.0,51,0.00,,,0.01,weatherlink.com 1.10,2013-11-28 22:22:00,
2013-11-28 17:37:00,38.1,22.0,30.53,South,171,3.0,5.0,52,0.00,,,0.01,weatherlink.com 1.10,2013-11-28 22:37:00,
2013-11-28 17:52:00,37.7,21.0,30.54,SE,144,2.0,5.0,52,0.00,,,0.01,weatherlink.com 1.10,2013-11-28 22:52:00,
2013-11-28 18:07:00,37.3,21.0,30.54,South,177,2.0,5.0,53,0.00,,,0.01,weatherlink.com 1.10,2013-11-28 23:07:00,
2013-11-28 18:22:00,37.3,21.0,30.54,South,187,3.0,5.0,53,0.00,,,0.01,weatherlink.com 1.10,2013-11-28 23:22:00,
2013-11-28 18:37:00,37.1,22.0,30.54,SW,221,4.0,4.0,54,0.00,,,0.01,weatherlink.com 1.10,2013-11-28 23:37:00,
2013-11-28 18:52:00,37.5,22.0,30.55,SSW,211,3.0,5.0,53,0.00,,,0.01,weatherlink.com 1.10,2013-11-28 23:52:00,
2013-11-28 19:07:00,37.5,22.0,30.55,WSW,256,3.0,5.0,53,0.00,,,0.01,weatherlink.com 1.10,2013-11-29 00:07:00,
2013-11-28 19:22:00,37.4,22.0,30.55,South,185,1.0,4.0,54,0.00,,,0.01,weatherlink.com 1.10,2013-11-29 00:22:00,
2013-11-28 19:37:00,37.0,22.0,30.55,SSE,159,2.0,3.0,55,0.00,,,0.01,weatherlink.com 1.10,2013-11-29 00:37:00,
2013-11-28 19:52:00,36.8,22.0,30.55,SSE,154,4.0,5.0,55,0.00,,,0.01,weatherlink.com 1.10,2013-11-29 00:52:00,
2013-11-28 20:07:00,36.1,22.0,30.55,ESE,123,2.0,3.0,57,0.00,,,0.01,weatherlink.com 1.10,2013-11-29 01:07:00,
2013-11-28 20:22:00,36.0,22.0,30.55,SSE,160,4.0,4.0,58,0.00,,,0.01,weatherlink.com 1.10,2013-11-29 01:22:00,
2013-11-28 20:37:00,35.9,23.0,30.56,SSE,160,3.0,5.0,59,0.00,,,0.01,weatherlink.com 1.10,2013-11-29 01:37:00,
2013-11-28 20:52:00,36.1,23.0,30.56,SSE,156,3.0,5.0,59,0.00,,,0.01,weatherlink.com 1.10,2013-11-29 01:52:00,
2013-11-28 21:07:00,36.1,23.0,30.56,SSE,167,3.0,4.0,60,0.00,,,0.01,weatherlink.com 1.10,2013-11-29 02:07:00,
2013-11-28 21:22:00,35.9,23.0,30.56,SE,146,2.0,3.0,61,0.00,,,0.01,weatherlink.com 1.10,2013-11-29 02:22:00,
2013-11-28 21:37:00,35.7,23.0,30.56,South,182,2.0,3.0,61,0.00,,,0.01,weatherlink.com 1.10,2013-11-29 02:37:00,
2013-11-28 21:52:00,34.9,23.0,30.57,WSW,248,0.0,2.0,63,0.00,,,0.01,weatherlink.com 1.10,2013-11-29 02:52:00,
2013-11-28 22:07:00,33.7,23.0,30.58,North,10,2.0,3.0,64,0.00,,,0.01,weatherlink.com 1.10,2013-11-29 03:07:00,
2013-11-28 22:22:00,34.1,23.0,30.58,NNW,344,1.0,2.0,64,0.00,,,0.01,weatherlink.com 1.10,2013-11-29 03:22:00,
2013-11-28 22:37:00,33.5,23.0,30.58,North,358,2.0,3.0,65,0.00,,,0.01,weatherlink.com 1.10,2013-11-29 03:37:00,
2013-11-28 22:52:00,34.2,23.0,30.59,North,1,0.0,2.0,64,0.00,,,0.01,weatherlink.com 1.10,2013-11-29 03:52:00,
2013-11-28 23:07:00,34.4,24.0,30.59,North,1,0.0,0.0,67,0.00,,,0.01,weatherlink.com 1.10,2013-11-29 04:07:00,
2013-11-28 23:22:00,34.7,24.0,30.60,East,91,0.0,0.0,65,0.00,,,0.01,weatherlink.com 1.10,2013-11-29 04:22:00,
2013-11-28 23:37:00,34.3,24.0,30.61,East,92,3.0,4.0,65,0.00,,,0.01,weatherlink.com 1.10,2013-11-29 04:37:00,
2013-11-28 23:52:00,33.3,24.0,30.61,SE,127,4.0,5.0,68,0.00,,,0.01,weatherlink.com 1.10,2013-11-29 04:52:00,